Simultaneous Nadir Overpasses (SNOs) Predictions

Prediction of SNOs between GOES-15 and METOP-A Satellite Orbit:

Table of predicted SNOs for the next 14.0 days since TLE Epoch: 12/22/2017
Index Date Time (GOES-15) GOES-15 Lat,Lon METOP-A Lat,Lon Distance(km) Time Diff (sec)
1 12/23/2017 06:32:39 0.09,-135.37 -0.15,-136.32 109.04 80
2 12/24/2017 06:09:18 0.09,-135.35 0.97,-131.33 458.27 80
3 12/25/2017 18:28:08 -0.08,-135.28 0.03,-135.89 69.78 80
4 12/26/2017 18:10:08 -0.08,-135.26 -1.08,-130.90 497.63 80
5 12/28/2017 06:29:06 0.07,-135.29 0.05,-135.49 23.22 80
6 12/30/2017 18:27:15 -0.07,-135.17 -0.10,-135.05 13.30 80
7 01/02/2018 06:22:53 0.06,-135.16 0.19,-134.65 57.65 80
8 01/03/2018 18:41:42 -0.05,-135.05 0.88,-139.21 474.11 80
9 01/04/2018 18:23:42 -0.05,-135.01 -0.24,-134.21 91.71 80




NCC Satellite Simultaneous Nadir Overpasses (SNOs) Prediction Service
